TimeEST,TemperatureF,Dew PointF,Humidity,Sea Level PressureIn,VisibilityMPH,Wind Direction,Wind SpeedMPH,Gust SpeedMPH,PrecipitationIn,Events,Conditions,WindDirDegrees,DateUTC
12:53 AM,34.0,21.9,61,29.95,10.0,NNE,3.5,-,N/A,,Overcast,30,2012-11-08 05:53:00
1:53 AM,35.1,21.0,57,29.94,10.0,North,3.5,-,N/A,,Overcast,360,2012-11-08 06:53:00
2:53 AM,34.0,19.9,56,29.92,10.0,NNE,3.5,-,N/A,,Mostly Cloudy,20,2012-11-08 07:53:00
3:53 AM,35.1,19.0,52,29.91,10.0,NNE,8.1,-,N/A,,Overcast,30,2012-11-08 08:53:00
4:53 AM,34.0,19.0,54,29.91,10.0,NNE,10.4,-,N/A,,Overcast,30,2012-11-08 09:53:00
5:53 AM,34.0,19.9,56,29.92,10.0,NNE,12.7,-,N/A,,Mostly Cloudy,30,2012-11-08 10:53:00
6:53 AM,34.0,21.0,59,29.92,10.0,NNE,9.2,-,N/A,,Overcast,30,2012-11-08 11:53:00
7:53 AM,35.1,21.9,59,29.93,10.0,North,11.5,21.9,N/A,,Overcast,10,2012-11-08 12:53:00
8:53 AM,34.0,23.0,64,29.93,10.0,NE,9.2,-,N/A,,Overcast,40,2012-11-08 13:53:00
9:53 AM,37.0,24.1,59,29.92,10.0,North,10.4,-,N/A,,Overcast,10,2012-11-08 14:53:00
10:53 AM,39.0,25.0,57,29.91,10.0,NNE,19.6,24.2,N/A,,Clear,20,2012-11-08 15:53:00
11:53 AM,42.1,26.1,53,29.89,10.0,North,17.3,27.6,N/A,,Mostly Cloudy,10,2012-11-08 16:53:00
12:53 PM,41.0,24.1,51,29.88,10.0,North,17.3,27.6,N/A,,Overcast,360,2012-11-08 17:53:00
1:53 PM,41.0,25.0,53,29.88,10.0,NNE,12.7,26.5,N/A,,Mostly Cloudy,20,2012-11-08 18:53:00
2:53 PM,39.9,26.1,58,29.90,10.0,NNE,12.7,-,N/A,,Overcast,30,2012-11-08 19:53:00
3:53 PM,37.9,26.1,62,29.92,10.0,NNE,12.7,-,N/A,,Overcast,20,2012-11-08 20:53:00
4:53 PM,37.9,26.1,62,29.94,10.0,North,13.8,26.5,N/A,,Overcast,10,2012-11-08 21:53:00
5:53 PM,37.9,26.1,62,29.96,10.0,North,8.1,23.0,N/A,,Overcast,350,2012-11-08 22:53:00
6:53 PM,37.9,26.1,62,29.97,10.0,North,11.5,21.9,N/A,,Overcast,350,2012-11-08 23:53:00
7:53 PM,37.9,27.0,65,29.97,10.0,NNW,6.9,-,N/A,,Overcast,340,2012-11-09 00:53:00
8:53 PM,39.0,26.1,60,29.98,10.0,NNW,9.2,-,N/A,,Overcast,330,2012-11-09 01:53:00
9:53 PM,37.9,26.1,62,29.98,10.0,NNW,5.8,-,N/A,,Overcast,340,2012-11-09 02:53:00
10:53 PM,37.0,25.0,62,29.97,10.0,NNW,8.1,-,N/A,,Overcast,330,2012-11-09 03:53:00
11:53 PM,34.0,24.1,67,29.98,10.0,NW,3.5,-,N/A,,Scattered Clouds,320,2012-11-09 04:53:00